Retour au catalogue

CZ-6A DEB

ActifPO
NORAD 55215·DEBRIS·🇨🇳 China

Lancé Nov 11, 2022 depuis Taiyuan Satellite Launch Center

Loading…

Prochains Passages (prochaines 24 heures)

TLE

FraisSource: Space-Track

Époque: Sep 14, 2026, 15:26 UTC

1 55215U 22151WG  26257.64324548  .00014107  00000-0  17895-2 0  9992
2 55215  98.6319 327.5497 0047617  19.1555 341.1433 14.81031058197944

Suivez CZ-6A DEB en temps réel avec AllMySat

Download on the App Store